Location: Stagg River
(62.7445°N, 115.7274°W)
Time: 14:03:45
(UTC-06:00)

N. Korean satellite - Visible Passes

Search period start: 19 October 2019 00:00
Search period end: 29 October 2019 00:00
Orbit: 455 x 508 km, 97.2° (Epoch: 19 October)

Date Brightness Start Highest point End Pass type
(mag) Time Alt. Az. Time Alt. Az. Time Alt. Az.
19 Oct 9.3 07:01:49 10° NE 07:04:47 24° E 07:07:47 10° SSE visible
19 Oct 9.1 19:21:40 10° SSW 19:24:39 27° W 19:27:41 10° NW visible
20 Oct 10.0 06:36:57 10° NE 06:39:14 16° E 06:41:31 10° SE visible
20 Oct 8.0 18:55:52 10° S 18:59:11 43° W 19:02:34 10° NNW visible
21 Oct 10.5 06:13:08 10° ENE 06:13:36 10° E 06:14:04 10° E visible
21 Oct 7.6 07:44:18 10° NNE 07:47:50 53° ESE 07:51:24 10° S visible
21 Oct 10.2 20:06:14 10° WSW 20:07:53 13° W 20:09:32 10° NW visible
22 Oct 8.7 07:19:06 10° NNE 07:22:24 33° E 07:25:44 10° SSE visible
22 Oct 9.6 19:39:39 10° SW 19:42:16 20° W 19:44:56 10° NW visible
23 Oct 9.5 06:54:02 10° NE 06:56:54 21° E 06:59:46 10° SE visible
23 Oct 8.7 19:13:37 10° SSW 19:16:44 31° W 19:19:55 10° NNW visible
24 Oct 10.1 06:29:17 10° NE 06:31:18 14° E 06:33:20 10° ESE visible
24 Oct 6.9 08:01:43 10° NNE 08:05:21 75° ESE 08:09:01 10° SSW visible
24 Oct 7.6 18:47:53 10° S 18:51:17 50° W 18:54:45 10° NNW visible
25 Oct 7.9 07:36:26 10° NNE 07:39:58 46° E 07:43:31 10° S visible
25 Oct 10.0 19:57:51 10° WSW 19:59:55 15° W 20:01:59 10° NW visible
26 Oct 8.9 07:11:16 10° NNE 07:14:30 29° E 07:17:45 10° SSE visible
26 Oct 9.4 19:31:29 10° SW 19:34:19 23° W 19:37:12 10° NW visible
27 Oct 9.7 06:46:15 10° NE 06:48:57 19° E 06:51:39 10° SE visible
27 Oct 8.4 19:05:32 10° SSW 19:08:47 36° W 19:12:07 10° NNW visible
28 Oct 10.3 06:21:40 10° NE 06:23:20 13° E 06:25:00 10° ESE visible
28 Oct 7.1 07:53:48 10° NNE 07:57:27 65° ESE 08:01:08 10° S visible
28 Oct 7.3 18:39:53 10° S 18:43:21 59° WSW 18:46:54 10° NNW visible
28 Oct 10.3 20:16:32 10° W 20:17:34 11° W 20:18:36 10° WNW visible
